SKYNET 5D

Last updated on Sun Apr 12 2026 00:02:53 GMT+0000 (Coordinated Universal Time)

1 39034U 12075A 26101.53117743 .00000101 00000+0 00000+0 0 9995 2 39034 0.0702 356.3508 0003876 27.3052 60.0725 1.00272743 48494
UTC large
Height (km)
Speed (km/s)
/
Latitude / Longitude
Inclination (degrees)
Orbital Period (minutes)
Azimuth
Elevation
Range (km)
Doppler Factor

Next 0 passes for location: London (51.5072 / 0.1276)

Sorry there are no passes over London.
SKYNET 5D